Flag for Germany Weather past 2 weeks in Lutherstadt Eisleben, Saxony-Anhalt, Germany

Now
50 °F

Scattered clouds.


Feels Like: 48 °F
Forecast: 38 / 51 °F
Wind: 5 mph from West

Location: Leipzig-Schkeuditz

Current Time: Apr 21, 2015 at 9:34:18 AM

Latest Report: Apr 21, 2015 at 9:00 AM


Visibility: 37 mi

Pressure: 30.35 "Hg

Humidity: 67%

Dew point: 39 °F

Location of Lutherstadt EislebenLocation

Historic Weather in Lutherstadt Eisleben — Graph

°F

Lutherstadt Eisleben temperature yesterday

Maximum temperature yesterday: 64 °F (at 6:00 PM)
Minimum temperature yesterday: 37 °F (at 6:00 AM)
Average temperature yesterday: 51 °F

Past Weeks' High & Low Weather Summary

 TemperatureHumidityPressure
High73 °F (Apr 15, 4:00 PM)95% (Apr 18, 7:00 AM)30.61 "Hg (Apr 18, 7:00 AM)
Low29 °F (Apr 7, 7:00 AM)22% (Apr 12, 2:00 PM)29.87 "Hg (Apr 15, 8:00 PM)
Average49 °F62%30.25 "Hg
* Reported Apr 6 8:00 AM — Apr 21 8:00 AM, Lutherstadt Eisleben, Weather by CustomWeather, © 2015

Note: Actual official high and low records may vary slightly from our data, if they occured in-between our weather recording intervals... More about our weather records

Advertising

Lutherstadt Eisleben weather history for previous 24 hours

 ConditionsComfort  
Time TempWeatherWind HumidityBarometerVisibility
8:00 AM
Tue, Apr 21
45 °FScattered clouds.5 mph77%30.36 "Hg37 mi
7:00 AM38 °FScattered clouds.5 mph85%30.37 "Hg37 mi
6:00 AM38 °FPassing clouds.2 mph82%30.36 "Hg31 mi
4:00 AM39 °FClear.2 mph78%30.37 "Hg31 mi
3:00 AM43 °FClear.2 mph76%30.35 "Hg31 mi
2:00 AM43 °FClear.1 mph75%30.35 "Hg31 mi
1:00 AM46 °FClear.2 mph66%30.35 "Hg31 mi
12:00 AM47 °FClear.2 mph65%30.34 "Hg31 mi
10:00 PM
Mon, Apr 20
53 °FPassing clouds.3 mph54%30.31 "Hg37 mi
9:00 PM56 °FPassing clouds.3 mph49%30.29 "Hg37 mi
8:00 PM59 °FPartly sunny.3 mph43%30.26 "Hg43 mi
7:00 PM62 °FPartly sunny.6 mph34%30.24 "Hg47 mi
6:00 PM64 °FPartly sunny.7 mph31%30.23 "Hg47 mi
4:00 PM64 °FScattered clouds.6 mph31%30.24 "Hg43 mi
3:00 PM62 °FScattered clouds.7 mph37%30.26 "Hg43 mi
2:00 PM60 °FPassing clouds.7 mph42%30.27 "Hg43 mi
1:00 PM58 °FSunny.6 mph44%30.28 "Hg43 mi
12:00 PM56 °FSunny.6 mph50%30.29 "Hg43 mi
10:00 AM50 °FSunny.5 mph55%30.29 "Hg37 mi
9:00 AM47 °FSunny.3 mph68%30.29 "Hg31 mi
Weather by CustomWeather, © 2015

See weather overviewHow to use our weather pages